User: anonymous   Login
Location: Bergnerzell
(49.1816°N, 10.2565°E)
Time: 06:55:52
(UTC+00:00)
Language:

Cosmos 1833 Rocket - Orbit

View from above orbital plane
View from above orbital plane
View from above satellite
View from above satellite

Ground track
Ground track

The orbit data is extracted from the following two-line orbital elements,

1 17590U 87027B   24205.41348217  .00000228  00000-0  13724-3 0  9991
2 17590  71.0035  88.6304 0006981 296.9345  63.1065 14.16990252931194
Epoch (UTC): 23 July 2024 09:55:24
Eccentricity: 0.0006981
inclination: 71.0035°
perigee height: 830 km
apogee height: 840 km
right ascension of ascending node: 88.6304°
argument of perigee: 296.9345°
revolutions per day: 14.16990252
mean anomaly at epoch: 63.1065°
orbit number at epoch: 93119

The dashed part of the orbit path shows where the satellite is in the earth's shadow,  

DLR